DW2819 Weather Reports


time (UTC)temp
C
wind
direction
speed
KPH
gust
KPH
rain 1hr
cm
rain 24hr
cm
rain mn
cm
humidity
%
barometer
mb
20260906051859 10 314 0.0 3.2 0.00 0.00 0.00 81 1005.0
20260906051402 10 334 1.6 6.4 0.00 0.00 0.00 82 1005.1
20260906050902 10 276 0.0 6.4 0.00 0.00 0.00 82 1004.9
20260906050400 10 279 0.0 3.2 0.00 0.00 0.00 83 1004.9
20260906045903 10 303 0.0 4.8 0.00 0.00 0.00 83 1005.1
20260906045402 10 344 1.6 4.8 0.00 0.00 0.00 84 1005.0
20260906044859 10 295 1.6 6.4 0.00 0.00 0.00 85 1004.9
20260906043902 9 333 1.6 4.8 0.00 0.00 0.00 86 1005.0
20260906042903 9 334 1.6 3.2 0.00 0.00 0.00 87 1004.8
20260906041901 9 306 0.0 4.8 0.00 0.00 0.00 88 1004.6
20260906041359 9 272 0.0 4.8 0.00 0.00 0.00 88 1004.5
20260906040859 9 293 0.0 3.2 0.00 0.00 0.00 88 1004.5
20260906040401 9 330 0.0 4.8 0.00 0.00 0.00 88 1004.4
20260906035859 9 305 0.0 4.8 0.00 0.00 0.00 88 1004.3
20260906034859 9 329 0.0 3.2 0.00 0.00 0.00 89 1004.2
20260906034359 9 299 0.0 3.2 0.00 0.00 0.00 89 1004.1
20260906033900 9 354 0.0 4.8 0.00 0.00 0.00 89 1004.1
20260906033401 9 286 1.6 4.8 0.00 0.00 0.00 89 1004.0
20260906032859 9 326 0.0 4.8 0.00 0.00 0.00 89 1004.0
20260906032401 9 348 0.0 3.2 0.00 0.00 0.00 89 1003.9
20260906031902 9 317 1.6 3.2 0.00 0.00 0.00 89 1003.8
20260906031359 9 289 0.0 3.2 0.00 0.00 0.00 89 1003.8
20260906030856 9 0 0.0 3.2 0.00 0.00 0.00 89 1003.7
20260906030359 9 350 0.0 4.8 0.00 0.00 0.00 90 1003.7
20260906025359 9 343 0.0 1.6 0.00 0.00 0.00 90 1003.5
20260906024856 9 344 0.0 3.2 0.00 0.00 0.00 90 1003.5
20260906024403 9 0 0.0 3.2 0.00 0.00 0.00 90 1003.4
20260906023902 9 341 0.0 1.6 0.00 0.00 0.00 90 1003.3
20260906023402 9 341 0.0 1.6 0.00 0.00 0.00 90 1003.3
20260906022901 8 302 0.0 1.6 0.00 0.00 0.00 89 1003.2
20260906022359 8 0 0.0 1.6 0.00 0.00 0.00 89 1003.1
20260906021901 8 0 0.0 1.6 0.00 0.00 0.00 89 1003.2
20260906021402 8 330 0.0 0.0 0.00 0.00 0.00 89 1003.2
20260906020903 8 330 0.0 0.0 0.00 0.00 0.00 89 1003.1
20260906020359 8 331 0.0 1.6 0.00 0.00 0.00 89 1003.0
20260906015900 8 317 0.0 3.2 0.00 0.00 0.00 89 1003.0
20260906015400 8 303 0.0 3.2 0.00 0.00 0.00 89 1002.9
20260906013900 8 296 0.0 1.6 0.00 0.00 0.00 89 1002.6
20260906013359 8 298 0.0 3.2 0.00 0.00 0.00 89 1002.5
20260906012902 8 299 1.6 3.2 0.00 0.00 0.00 89 1002.5
20260906011859 8 336 0.0 1.6 0.00 0.00 0.00 89 1002.4
20260906011401 8 296 0.0 1.6 0.00 0.00 0.00 89 1002.5
20260906010901 8 303 0.0 6.4 0.00 0.00 0.00 89 1002.4
20260906005859 9 351 0.0 1.6 0.00 0.00 0.00 89 1002.2
20260906005340 9 317 0.0 0.0 0.00 0.00 0.00 89 1002.3
20260906004838 9 317 0.0 1.6 0.00 0.00 0.00 89 1002.1
20260906004338 9 317 0.0 1.6 0.00 0.00 0.00 89 1002.2
20260906003834 9 303 0.0 1.6 0.00 0.00 0.00 89 1002.1
20260906003337 9 331 0.0 1.6 0.00 0.00 0.00 89 1002.0
20260906002831 9 309 0.0 4.8 0.00 0.00 0.00 89 1001.9
20260906002332 9 340 0.0 4.8 0.00 0.00 0.00 89 1002.0
20260906001834 9 307 0.0 4.8 0.00 0.00 0.00 89 1001.9
20260906001330 9 296 0.0 1.6 0.00 0.00 0.00 89 1001.8
20260906000821 9 307 0.0 1.6 0.00 0.00 0.00 89 1001.9
20260906000314 9 317 0.0 0.0 0.00 0.00 0.00 89 1001.7
20260905235307 10 327 0.0 1.6 0.00 0.00 0.00 89 1001.6
20260905234259 10 302 0.0 3.2 0.00 0.00 0.00 89 1001.4
20260905233802 10 289 0.0 1.6 0.00 0.00 0.00 88 1001.5
20260905233300 10 292 0.0 1.6 0.00 0.00 0.00 88 1001.4
20260905232800 10 319 0.0 3.2 0.00 0.00 0.00 88 1001.3
20260905232257 10 321 0.0 4.8 0.00 0.00 0.00 88 1001.3
20260905231757 10 0 0.0 4.8 0.00 0.00 0.00 88 1001.3
20260905231259 10 0 0.0 6.4 0.00 0.00 0.00 88 1001.2
20260905230307 10 0 0.0 0.0 0.00 0.00 0.00 88 1001.1
20260905225259 10 0 0.0 1.6 0.00 0.00 0.00 88 1001.0
20260905224757 10 0 0.0 1.6 0.00 0.00 0.00 88 1001.0
20260905223759 10 299 0.0 3.2 0.00 0.00 0.00 88 1000.9
20260905223259 10 334 0.0 1.6 0.00 0.00 0.00 88 1000.8
20260905222758 10 333 0.0 1.6 0.00 0.00 0.00 88 1000.8
20260905222301 10 293 0.0 1.6 0.00 0.00 0.00 88 1000.8
20260905221758 10 314 0.0 1.6 0.00 0.00 0.00 88 1000.7
20260905221258 10 314 0.0 1.6 0.00 0.00 0.00 88 1000.7
20260905220802 10 298 0.0 1.6 0.00 0.00 0.00 88 1000.7
20260905220259 10 266 0.0 0.0 0.00 0.00 0.00 88 1000.7
20260905215800 10 266 0.0 0.0 0.00 0.00 0.00 88 1000.6
20260905215259 11 266 0.0 1.6 0.00 0.00 0.00 88 1000.7
20260905214755 11 266 0.0 1.6 0.00 0.00 0.00 88 1000.5
20260905214255 11 336 0.0 0.0 0.00 0.00 0.00 88 1000.5
20260905213756 11 334 0.0 0.0 0.00 0.00 0.00 88 1000.4
20260905213255 11 334 0.0 0.0 0.00 0.00 0.00 88 1000.4
20260905212758 11 333 0.0 1.6 0.00 0.00 0.00 88 1000.4
20260905212259 11 333 0.0 1.6 0.00 0.00 0.00 88 1000.3
20260905211803 11 319 0.0 1.6 0.00 0.00 0.00 88 1000.4
20260905210758 11 347 0.0 0.0 0.00 0.00 0.00 88 1000.2
20260905210259 11 347 0.0 0.0 0.00 0.00 0.00 88 1000.2
20260905205759 11 347 0.0 0.0 0.00 0.00 0.00 88 1000.1
20260905205259 11 347 0.0 0.0 0.00 0.00 0.00 88 1000.2
20260905204759 11 347 0.0 0.0 0.00 0.00 0.00 88 1000.1
20260905204259 11 261 0.0 0.0 0.00 0.00 0.00 88 1000.0
20260905203759 11 261 0.0 0.0 0.00 0.00 0.00 88 999.9
20260905203301 11 0 0.0 0.0 0.00 0.00 0.00 87 999.9
20260905202759 11 1 0.0 0.0 0.00 0.00 0.00 87 999.8
20260905202259 11 1 0.0 1.6 0.00 0.00 0.00 87 999.7
20260905201758 11 1 0.0 1.6 0.00 0.00 0.00 86 999.7
20260905201259 11 358 0.0 0.0 0.00 0.00 0.00 86 999.6
20260905200758 11 358 0.0 0.0 0.00 0.00 0.00 86 999.6
20260905200259 12 358 0.0 0.0 0.00 0.00 0.00 85 999.7
20260905194802 12 334 0.0 0.0 0.00 0.00 0.00 84 999.4
20260905194301 12 334 0.0 0.0 0.00 0.00 0.00 84 999.4
20260905193800 12 334 0.0 0.0 0.00 0.00 0.00 83 999.3
20260905192801 12 334 0.0 0.0 0.00 0.00 0.00 83 999.3
20260905192259 12 334 0.0 0.0 0.00 0.00 0.00 83 999.2
20260905191759 12 0 0.0 3.2 0.00 0.00 0.00 83 999.2
20260905190803 12 344 0.0 1.6 0.00 0.00 0.00 84 999.1
20260905190301 12 0 0.0 1.6 0.00 0.00 0.00 84 999.1
20260905185800 12 269 0.0 1.6 0.00 0.00 0.00 85 999.1
20260905185259 12 4 0.0 0.0 0.00 0.00 0.00 84 999.0
20260905184800 12 4 0.0 0.0 0.00 0.00 0.00 84 999.1
20260905184303 12 4 0.0 4.8 0.00 0.00 0.00 83 998.9
20260905183808 12 4 1.6 4.8 0.00 0.00 0.00 83 998.9
20260905182759 13 289 0.0 1.6 0.00 0.00 0.00 84 998.8
20260905182259 13 289 0.0 1.6 0.00 0.00 0.00 83 998.8
20260905181800 13 11 0.0 0.0 0.00 0.00 0.00 83 998.7
20260905180758 13 13 0.0 0.0 0.00 0.00 0.00 84 998.7
20260905180301 13 354 0.0 0.0 0.00 0.00 0.00 84 998.6
20260905175758 13 354 0.0 0.0 0.00 0.00 0.00 84 998.6
20260905173758 13 354 0.0 0.0 0.00 0.00 0.00 82 998.5
20260905173258 13 354 0.0 0.0 0.00 0.00 0.00 82 998.5
20260905172758 13 354 0.0 0.0 0.00 0.00 0.00 82 998.5
20260905172305 13 354 0.0 0.0 0.00 0.00 0.00 82 998.4
20260905171758 13 354 0.0 0.0 0.00 0.00 0.00 82 998.3
20260905170759 13 354 0.0 0.0 0.00 0.00 0.00 82 998.1
20260905170305 13 354 0.0 0.0 0.00 0.00 0.00 81 998.1
20260905165759 13 354 0.0 0.0 0.00 0.00 0.00 81 998.0
20260905165258 13 354 0.0 0.0 0.00 0.00 0.00 81 998.0
20260905164759 13 354 0.0 0.0 0.00 0.00 0.00 81 997.8
20260905164258 13 354 0.0 0.0 0.00 0.00 0.00 80 997.9
20260905163758 13 354 0.0 0.0 0.00 0.00 0.00 80 997.8
20260905163300 13 354 0.0 0.0 0.00 0.00 0.00 80 997.8
20260905162759 13 354 0.0 0.0 0.00 0.00 0.00 80 997.8
20260905162259 14 354 0.0 0.0 0.00 0.00 0.00 79 997.7
20260905161809 14 354 0.0 0.0 0.00 0.00 0.00 78 997.6
20260905161307 14 354 0.0 0.0 0.00 0.00 0.00 77 997.6
20260905160802 14 354 0.0 0.0 0.00 0.00 0.00 77 997.6
20260905160306 14 354 0.0 0.0 0.00 0.00 0.00 77 997.5
20260905155803 14 354 0.0 0.0 0.00 0.00 0.00 76 997.4
20260905155305 15 354 0.0 0.0 0.00 0.00 0.00 75 997.3
20260905154801 15 354 0.0 0.0 0.00 0.00 0.00 74 997.3
20260905154300 15 354 0.0 0.0 0.00 0.00 0.00 72 997.3
20260905153802 15 354 0.0 0.0 0.00 0.00 0.00 71 997.3
20260905153300 15 354 0.0 0.0 0.00 0.00 0.00 70 997.1
20260905152800 16 354 0.0 0.0 0.00 0.00 0.00 68 997.1
20260905152258 16 354 0.0 1.6 0.00 0.00 0.00 66 997.2
20260905151758 16 354 0.0 1.6 0.00 0.00 0.00 65 997.2
20260905151300 16 0 0.0 1.6 0.00 0.00 0.00 64 997.2
20260905150800 16 3 0.0 3.2 0.00 0.00 0.00 63 997.1
20260905150302 17 265 0.0 3.2 0.00 0.00 0.00 62 997.1
20260905145800 17 279 0.0 3.2 0.00 0.00 0.00 62 997.0
20260905144300 17 341 0.0 3.2 0.00 0.00 0.00 65 996.8
20260905143800 17 334 0.0 4.8 0.00 0.00 0.00 64 996.7
20260905143258 17 275 1.6 4.8 0.00 0.00 0.00 61 996.7
20260905142801 17 254 0.0 4.8 0.00 0.00 0.00 60 996.7
20260905141756 17 355 0.0 3.2 0.00 0.00 0.00 60 996.6
20260905140756 17 7 0.0 3.2 0.00 0.00 0.00 57 996.5
20260905140254 17 261 0.0 3.2 0.00 0.00 0.00 58 996.5
20260905135755 17 285 1.6 4.8 0.00 0.00 0.00 54 996.5
20260905135254 17 269 1.6 4.8 0.00 0.00 0.00 58 996.4
20260905134258 17 0 0.0 4.8 0.00 0.00 0.00 59 996.3
20260905133755 17 298 3.2 6.4 0.00 0.00 0.00 60 996.3
20260905132756 17 1 0.0 4.8 0.00 0.00 0.00 60 996.2
20260905132254 17 0 0.0 4.8 0.00 0.00 0.00 55 996.2
20260905131756 17 350 1.6 4.8 0.00 0.00 0.00 55 996.2
20260905131256 16 0 0.0 4.8 0.00 0.00 0.00 59 996.3
20260905130755 16 313 0.0 3.2 0.00 0.00 0.00 59 996.2
20260905130257 17 272 1.6 4.8 0.00 0.00 0.00 60 996.2
20260905125757 17 350 1.6 4.8 0.00 0.00 0.00 59 996.1
20260905125256 17 336 1.6 3.2 0.00 0.00 0.00 59 996.1
20260905124758 17 0 0.0 4.8 0.00 0.00 0.00 61 996.1
20260905124256 17 303 0.0 8.0 0.00 0.00 0.00 60 996.0
20260905123758 16 292 1.6 8.0 0.00 0.00 0.00 61 995.9
20260905123300 16 200 0.0 4.8 0.00 0.00 0.00 59 995.9
20260905121758 16 251 0.0 4.8 0.00 0.00 0.00 66 995.8
20260905121258 16 278 0.0 4.8 0.00 0.00 0.00 65 995.9
20260905120800 16 316 0.0 6.4 0.00 0.00 0.00 69 995.9
20260905115800 15 354 0.0 3.2 0.00 0.00 0.00 68 995.9
20260905115320 15 316 0.0 3.2 0.00 0.00 0.00 68 995.8
20260905114316 15 76 0.0 0.0 0.00 0.00 0.00 74 995.8
20260905112815 16 76 0.0 0.0 0.00 0.00 0.00 70 995.7
20260905111754 16 71 0.0 1.6 0.00 0.00 0.00 67 995.8
20260905111255 16 71 0.0 1.6 0.00 0.00 0.00 66 995.7
20260905110756 17 72 0.0 3.2 0.00 0.00 0.00 64 995.6
20260905110259 17 37 1.6 8.0 0.00 0.00 0.00 64 995.7
20260905105825 17 35 3.2 8.0 0.00 0.00 0.00 63 995.5
20260905104759 16 16 1.6 3.2 0.00 0.00 0.00 64 995.5
20260905104310 16 251 0.0 1.6 0.00 0.00 0.00 65 995.4
20260905102759 17 257 0.0 6.4 0.00 0.00 0.00 65 995.3
20260905102307 16 319 0.0 4.8 0.00 0.00 0.00 66 995.2
20260905101302 17 326 1.6 1.6 0.00 0.00 0.00 66 995.2
20260905100800 17 340 0.0 1.6 0.00 0.00 0.00 66 995.2
20260905100300 17 344 0.0 1.6 0.00 0.00 0.00 66 995.2
20260905095757 17 331 0.0 1.6 0.00 0.00 0.00 68 995.1
20260905095259 17 305 0.0 1.6 0.00 0.00 0.00 66 995.1
20260905094258 17 41 0.0 4.8 0.00 0.00 0.00 68 995.1
20260905093758 17 0 0.0 3.2 0.00 0.00 0.00 69 995.0
20260905093258 16 313 0.0 1.6 0.00 0.00 0.00 70 995.0
20260905092758 16 330 0.0 1.6 0.00 0.00 0.00 73 995.1
20260905092306 16 220 0.0 1.6 0.00 0.00 0.00 75 995.0
20260905091258 16 0 0.0 3.2 0.00 0.00 0.00 75 995.0
20260905090758 16 24 0.0 1.6 0.00 0.00 0.00 75 994.9
20260905090258 15 310 0.0 1.6 0.00 0.00 0.00 75 994.9
20260905085758 15 310 0.0 1.6 0.00 0.00 0.00 79 994.9
20260905085257 14 309 0.0 0.0 0.00 0.00 0.00 79 994.9
20260905084754 14 309 0.0 1.6 0.00 0.00 0.00 80 994.8
20260905084255 14 307 0.0 1.6 0.00 0.00 0.00 80 994.9
20260905083759 13 313 0.0 0.0 0.00 0.00 0.00 83 994.8
20260905083255 13 313 0.0 1.6 0.00 0.00 0.00 83 994.8
20260905082758 13 313 0.0 1.6 0.00 0.00 0.00 81 994.8
20260905082301 14 28 0.0 1.6 0.00 0.00 0.00 81 994.8
20260905081758 14 299 0.0 1.6 0.00 0.00 0.00 80 994.7
20260905081259 14 299 0.0 1.6 0.00 0.00 0.00 81 994.6
20260905080758 14 309 0.0 1.6 0.00 0.00 0.00 82 994.7
20260905075758 13 340 0.0 0.0 0.00 0.00 0.00 83 994.8
20260905075258 13 340 0.0 0.0 0.00 0.00 0.00 83 994.7
20260905074758 13 336 0.0 1.6 0.00 0.00 0.00 83 994.7
20260905074258 13 340 0.0 1.6 0.00 0.00 0.00 82 994.7
20260905073757 13 340 0.0 1.6 0.00 0.00 0.00 83 994.6
20260905073257 12 0 0.0 1.6 0.00 0.00 0.00 85 994.6
20260905072758 11 0 0.0 1.6 0.00 0.00 0.00 88 994.6
20260905072305 11 0 0.0 0.0 0.00 0.00 0.00 88 994.6
20260905071758 11 0 0.0 0.0 0.00 0.00 0.00 88 994.6
20260905071301 11 0 0.0 0.0 0.00 0.00 0.00 87 994.6
20260905070757 11 1 0.0 0.0 0.00 0.00 0.00 87 994.5
20260905070304 12 1 0.0 0.0 0.00 0.00 0.00 87 994.4
20260905065759 12 1 0.0 0.0 0.00 0.00 0.00 87 994.4
20260905065300 12 1 0.0 0.0 0.00 0.00 0.00 86 994.3
20260905064759 12 8 0.0 0.0 0.00 0.00 0.00 86 994.4
20260905064323 12 8 0.0 0.0 0.00 0.00 0.00 86 994.3
20260905063258 12 8 0.0 0.0 0.00 0.00 0.00 85 994.2
20260905062757 12 8 0.0 0.0 0.00 0.00 0.00 87 994.2
20260905062259 11 11 0.0 1.6 0.00 0.00 0.00 87 994.1
20260905061801 12 7 0.0 1.6 0.00 0.00 0.00 86 994.1
20260905060800 11 34 0.0 1.6 0.00 0.00 0.00 87 994.0
20260905060257 11 79 0.0 0.0 0.00 0.00 0.00 88 994.1
20260905055800 11 79 0.0 0.0 0.00 0.00 0.00 88 994.1
20260905055259 10 79 0.0 0.0 0.00 0.00 0.00 88 994.1
20260905054800 10 79 0.0 0.0 0.00 0.00 0.00 89 994.1
20260905054233 10 79 0.0 0.0 0.00 0.00 0.00 91 994.1
20260905053731 9 79 0.0 0.0 0.00 0.00 0.00 92 994.0
20260905053229 9 79 0.0 0.0 0.00 0.00 0.00 93 994.1
20260905052817 8 79 0.0 0.0 0.00 0.00 0.00 94 994.1